Year,Month,Day,Hour,Minute,Value (Times are PST for temperature in C)
2017,07,15,00,00,19.30
2017,07,15,00,01,19.40
2017,07,15,00,02,19.40
2017,07,15,00,03,19.50
2017,07,15,00,04,19.50
2017,07,15,00,05,19.50
2017,07,15,00,06,19.50
2017,07,15,00,07,19.60
2017,07,15,00,08,19.60
2017,07,15,00,09,19.60
2017,07,15,00,10,19.60
2017,07,15,00,11,19.60
2017,07,15,00,12,19.60
2017,07,15,00,13,19.70
2017,07,15,00,14,19.70
2017,07,15,00,15,19.70
2017,07,15,00,16,19.70
2017,07,15,00,17,19.70
2017,07,15,00,18,19.70
2017,07,15,00,19,19.70
2017,07,15,00,20,19.70
2017,07,15,00,21,19.70
2017,07,15,00,22,19.70
2017,07,15,00,23,19.70
2017,07,15,00,24,19.70
2017,07,15,00,25,19.70
2017,07,15,00,26,19.70
2017,07,15,00,27,19.60
2017,07,15,00,28,19.60
2017,07,15,00,29,19.60
2017,07,15,00,30,19.50
2017,07,15,00,31,19.50
2017,07,15,00,32,19.40
2017,07,15,00,33,19.40
2017,07,15,00,34,19.30
2017,07,15,00,35,19.30
2017,07,15,00,36,19.20
2017,07,15,00,37,19.20
2017,07,15,00,38,19.20
2017,07,15,00,39,19.10
2017,07,15,00,40,19.10
2017,07,15,00,41,19.00
2017,07,15,00,42,19.00
2017,07,15,00,43,18.90
2017,07,15,00,44,18.90
2017,07,15,00,45,18.80
2017,07,15,00,46,18.80
2017,07,15,00,47,18.80
2017,07,15,00,48,18.80
2017,07,15,00,49,18.80
2017,07,15,00,50,18.80
2017,07,15,00,51,18.80
2017,07,15,00,52,18.70
2017,07,15,00,53,18.70
2017,07,15,00,54,18.70
2017,07,15,00,55,18.70
2017,07,15,00,56,18.70
2017,07,15,00,57,18.60
2017,07,15,00,58,18.50
2017,07,15,00,59,18.50
2017,07,15,01,00,18.40
2017,07,15,01,01,18.30
2017,07,15,01,02,18.30
2017,07,15,01,03,18.30
2017,07,15,01,04,18.30
2017,07,15,01,05,18.30
2017,07,15,01,06,18.30
2017,07,15,01,07,18.20
2017,07,15,01,08,18.20
2017,07,15,01,09,18.20
2017,07,15,01,10,18.20
2017,07,15,01,11,18.20
2017,07,15,01,12,18.20
2017,07,15,01,13,18.20
2017,07,15,01,14,18.20
2017,07,15,01,15,18.20
2017,07,15,01,16,18.20
2017,07,15,01,17,18.10
2017,07,15,01,18,18.10
2017,07,15,01,19,18.10
2017,07,15,01,20,18.10
2017,07,15,01,21,18.10
2017,07,15,01,22,18.10
2017,07,15,01,23,18.10
2017,07,15,01,24,18.10
2017,07,15,01,25,18.10
2017,07,15,01,26,18.10
2017,07,15,01,27,18.10
2017,07,15,01,28,18.10
2017,07,15,01,29,18.10
2017,07,15,01,30,18.00
2017,07,15,01,31,18.00
2017,07,15,01,32,18.00
2017,07,15,01,33,17.90
2017,07,15,01,34,17.90
2017,07,15,01,35,17.90
2017,07,15,01,36,17.80
2017,07,15,01,37,17.80
2017,07,15,01,38,17.80
2017,07,15,01,39,17.70
2017,07,15,01,40,17.70
2017,07,15,01,41,17.70
2017,07,15,01,42,17.60
2017,07,15,01,43,17.60
2017,07,15,01,44,17.60
2017,07,15,01,45,17.60
2017,07,15,01,46,17.50
2017,07,15,01,47,17.50
2017,07,15,01,48,17.50
2017,07,15,01,49,17.40
2017,07,15,01,50,17.30
2017,07,15,01,51,17.20
2017,07,15,01,52,17.10
2017,07,15,01,53,17.00
2017,07,15,01,54,16.80
2017,07,15,01,55,16.70
2017,07,15,01,56,16.60
2017,07,15,01,57,16.50
2017,07,15,01,58,16.40
2017,07,15,01,59,16.40
2017,07,15,02,00,16.40
2017,07,15,02,01,16.40
2017,07,15,02,02,16.40
2017,07,15,02,03,16.40
2017,07,15,02,04,16.40
2017,07,15,02,05,16.30
2017,07,15,02,06,16.20
2017,07,15,02,07,16.10
2017,07,15,02,08,16.10
2017,07,15,02,09,16.10
2017,07,15,02,10,16.20
2017,07,15,02,11,16.20
2017,07,15,02,12,16.20
2017,07,15,02,13,16.20
2017,07,15,02,14,16.20
2017,07,15,02,15,16.10
2017,07,15,02,16,16.00
2017,07,15,02,17,16.00
2017,07,15,02,18,16.00
2017,07,15,02,19,15.90
2017,07,15,02,20,15.90
2017,07,15,02,21,15.90
2017,07,15,02,22,15.80
2017,07,15,02,23,15.80
2017,07,15,02,24,15.70
2017,07,15,02,25,15.60
2017,07,15,02,26,15.40
2017,07,15,02,27,15.40
2017,07,15,02,28,15.30
2017,07,15,02,29,15.20
2017,07,15,02,30,15.20
2017,07,15,02,31,15.10
2017,07,15,02,32,15.10
2017,07,15,02,33,15.00
2017,07,15,02,34,14.90
2017,07,15,02,35,14.90
2017,07,15,02,36,14.80
2017,07,15,02,37,14.80
2017,07,15,02,38,14.70
2017,07,15,02,39,14.70
2017,07,15,02,40,14.60
2017,07,15,02,41,14.60
2017,07,15,02,42,14.60
2017,07,15,02,43,14.60
2017,07,15,02,44,14.60
2017,07,15,02,45,14.50
2017,07,15,02,46,14.50
2017,07,15,02,47,14.40
2017,07,15,02,48,14.40
2017,07,15,02,49,14.30
2017,07,15,02,50,14.30
2017,07,15,02,51,14.30
2017,07,15,02,52,14.20
2017,07,15,02,53,14.20
2017,07,15,02,54,14.20
2017,07,15,02,55,14.20
2017,07,15,02,56,14.30
2017,07,15,02,57,14.20
2017,07,15,02,58,14.20
2017,07,15,02,59,14.20
2017,07,15,03,00,14.20
2017,07,15,03,01,14.20
2017,07,15,03,02,14.20
2017,07,15,03,03,14.20
2017,07,15,03,04,14.10
2017,07,15,03,05,14.10
2017,07,15,03,06,14.10
2017,07,15,03,07,14.10
2017,07,15,03,08,14.10
2017,07,15,03,09,14.20
2017,07,15,03,10,14.20
2017,07,15,03,11,14.30
2017,07,15,03,12,14.40
2017,07,15,03,13,14.60
2017,07,15,03,14,14.60
2017,07,15,03,15,14.70
2017,07,15,03,16,14.70
2017,07,15,03,17,14.70
2017,07,15,03,18,14.70
2017,07,15,03,19,14.70
2017,07,15,03,20,14.70
2017,07,15,03,21,14.80
2017,07,15,03,22,14.80
2017,07,15,03,23,14.90
2017,07,15,03,24,15.00
2017,07,15,03,25,15.10
2017,07,15,03,26,15.20
2017,07,15,03,27,15.20
2017,07,15,03,28,15.40
2017,07,15,03,29,15.50
2017,07,15,03,30,15.60
2017,07,15,03,31,15.70
2017,07,15,03,32,15.70
2017,07,15,03,33,15.80
2017,07,15,03,34,15.90
2017,07,15,03,35,16.00
2017,07,15,03,36,16.10
2017,07,15,03,37,16.20
2017,07,15,03,38,16.20
2017,07,15,03,39,16.30
2017,07,15,03,40,16.30
2017,07,15,03,41,16.30
2017,07,15,03,42,16.30
2017,07,15,03,43,16.30
2017,07,15,03,44,16.30
2017,07,15,03,45,16.30
2017,07,15,03,46,16.20
2017,07,15,03,47,16.20
2017,07,15,03,48,16.20
2017,07,15,03,49,16.20
2017,07,15,03,50,16.10
2017,07,15,03,51,16.10
2017,07,15,03,52,16.10
2017,07,15,03,53,16.00
2017,07,15,03,54,16.00
2017,07,15,03,55,16.00
2017,07,15,03,56,15.90
2017,07,15,03,57,15.90
2017,07,15,03,58,15.80
2017,07,15,03,59,15.80
2017,07,15,04,00,15.70
2017,07,15,04,01,15.60
2017,07,15,04,02,15.50
2017,07,15,04,03,15.40
2017,07,15,04,04,15.30
2017,07,15,04,05,15.10
2017,07,15,04,06,15.00
2017,07,15,04,07,14.90
2017,07,15,04,08,14.80
2017,07,15,04,09,14.70
2017,07,15,04,10,14.60
2017,07,15,04,11,14.50
2017,07,15,04,12,14.40
2017,07,15,04,13,14.30
2017,07,15,04,14,14.30
2017,07,15,04,15,14.20
2017,07,15,04,16,14.20
2017,07,15,04,17,14.20
2017,07,15,04,18,14.10
2017,07,15,04,19,14.10
2017,07,15,04,20,14.00
2017,07,15,04,21,13.90
2017,07,15,04,22,13.90
2017,07,15,04,23,13.90
2017,07,15,04,24,13.90
2017,07,15,04,25,13.80
2017,07,15,04,26,13.80
2017,07,15,04,27,13.80
2017,07,15,04,28,13.80
2017,07,15,04,29,13.80
2017,07,15,04,30,13.70
2017,07,15,04,31,13.70
2017,07,15,04,32,13.70
2017,07,15,04,33,13.70
2017,07,15,04,34,13.70
2017,07,15,04,35,13.70
2017,07,15,04,36,13.60
2017,07,15,04,37,13.60
2017,07,15,04,38,13.60
2017,07,15,04,39,13.60
2017,07,15,04,40,13.50
2017,07,15,04,41,13.60
2017,07,15,04,42,13.70
2017,07,15,04,43,13.80
2017,07,15,04,44,13.90
2017,07,15,04,45,14.10
2017,07,15,04,46,14.30
2017,07,15,04,47,14.40
2017,07,15,04,48,14.50
2017,07,15,04,49,14.50
2017,07,15,04,50,14.50
2017,07,15,04,51,14.40
2017,07,15,04,52,14.40
2017,07,15,04,53,14.40
2017,07,15,04,54,14.30
2017,07,15,04,55,14.30
2017,07,15,04,56,14.20
2017,07,15,04,57,14.20
2017,07,15,04,58,14.20
2017,07,15,04,59,14.20
2017,07,15,05,00,14.10
2017,07,15,05,01,14.10
2017,07,15,05,02,14.00
2017,07,15,05,03,14.00
2017,07,15,05,04,13.90
2017,07,15,05,05,13.90
2017,07,15,05,06,13.80
2017,07,15,05,07,13.90
2017,07,15,05,08,13.90
2017,07,15,05,09,13.90
2017,07,15,05,10,13.80
2017,07,15,05,11,13.80
2017,07,15,05,12,13.80
2017,07,15,05,13,13.80
2017,07,15,05,14,13.80
2017,07,15,05,15,13.80
2017,07,15,05,16,13.80
2017,07,15,05,17,13.80
2017,07,15,05,18,13.80
2017,07,15,05,19,13.80
2017,07,15,05,20,13.80
2017,07,15,05,21,13.90
2017,07,15,05,22,13.90
2017,07,15,05,23,13.80
2017,07,15,05,24,13.80
2017,07,15,05,25,13.80
2017,07,15,05,26,13.80
2017,07,15,05,27,13.90
2017,07,15,05,28,13.90
2017,07,15,05,29,14.00
2017,07,15,05,30,14.00
2017,07,15,05,31,14.00
2017,07,15,05,32,14.00
2017,07,15,05,33,14.00
2017,07,15,05,34,14.00
2017,07,15,05,35,14.00
2017,07,15,05,36,14.00
2017,07,15,05,37,14.10
2017,07,15,05,38,14.10
2017,07,15,05,39,14.10
2017,07,15,05,40,14.10
2017,07,15,05,41,14.10
2017,07,15,05,42,14.10
2017,07,15,05,43,14.10
2017,07,15,05,44,14.10
2017,07,15,05,45,14.10
2017,07,15,05,46,14.10
2017,07,15,05,47,14.10
2017,07,15,05,48,14.10
2017,07,15,05,49,14.20
2017,07,15,05,50,14.20
2017,07,15,05,51,14.30
2017,07,15,05,52,14.30
2017,07,15,05,53,14.40
2017,07,15,05,54,14.40
2017,07,15,05,55,14.40
2017,07,15,05,56,14.50
2017,07,15,05,57,14.50
2017,07,15,05,58,14.60
2017,07,15,05,59,14.70
2017,07,15,06,00,14.80
2017,07,15,06,01,14.90
2017,07,15,06,02,14.90
2017,07,15,06,03,15.00
2017,07,15,06,04,15.10
2017,07,15,06,05,15.20
2017,07,15,06,06,15.20
2017,07,15,06,07,15.30
2017,07,15,06,08,15.40
2017,07,15,06,09,15.40
2017,07,15,06,10,15.40
2017,07,15,06,11,15.50
2017,07,15,06,12,15.60
2017,07,15,06,13,15.60
2017,07,15,06,14,15.70
2017,07,15,06,15,15.70
2017,07,15,06,16,15.70
2017,07,15,06,17,15.70
2017,07,15,06,18,15.70
2017,07,15,06,19,15.70
2017,07,15,06,20,15.70
2017,07,15,06,21,15.70
2017,07,15,06,22,15.70
2017,07,15,06,23,15.60
2017,07,15,06,24,15.60
2017,07,15,06,25,15.60
2017,07,15,06,26,15.50
2017,07,15,06,27,15.50
2017,07,15,06,28,15.50
2017,07,15,06,29,15.50
2017,07,15,06,30,15.50
2017,07,15,06,31,15.50
2017,07,15,06,32,15.40
2017,07,15,06,33,15.40
2017,07,15,06,34,15.40
2017,07,15,06,35,15.40
2017,07,15,06,36,15.40
2017,07,15,06,37,15.50
2017,07,15,06,38,15.50
2017,07,15,06,39,15.50
2017,07,15,06,40,15.60
2017,07,15,06,41,15.60
2017,07,15,06,42,15.70
2017,07,15,06,43,15.70
2017,07,15,06,44,15.80
2017,07,15,06,45,15.80
2017,07,15,06,46,15.80
2017,07,15,06,47,15.80
2017,07,15,06,48,15.90
2017,07,15,06,49,15.90
2017,07,15,06,50,15.90
2017,07,15,06,51,16.00
2017,07,15,06,52,16.00
2017,07,15,06,53,16.00
2017,07,15,06,54,16.00
2017,07,15,06,55,16.00
2017,07,15,06,56,16.00
2017,07,15,06,57,16.00
2017,07,15,06,58,16.00
2017,07,15,06,59,16.00
2017,07,15,07,00,16.00
2017,07,15,07,01,16.00
2017,07,15,07,02,16.10
2017,07,15,07,03,16.10
2017,07,15,07,04,16.10
2017,07,15,07,05,16.20
2017,07,15,07,06,16.20
2017,07,15,07,07,16.30
2017,07,15,07,08,16.30
2017,07,15,07,09,16.30
2017,07,15,07,10,16.30
2017,07,15,07,11,16.40
2017,07,15,07,12,16.40
2017,07,15,07,13,16.40
2017,07,15,07,14,16.50
2017,07,15,07,15,16.50
2017,07,15,07,16,16.60
2017,07,15,07,17,16.70
2017,07,15,07,18,16.70
2017,07,15,07,19,16.80
2017,07,15,07,20,16.80
2017,07,15,07,21,16.90
2017,07,15,07,22,17.00
2017,07,15,07,23,17.00
2017,07,15,07,24,17.10
2017,07,15,07,25,17.10
2017,07,15,07,26,17.20
2017,07,15,07,27,17.20
2017,07,15,07,28,17.20
2017,07,15,07,29,17.30
2017,07,15,07,30,17.30
2017,07,15,07,31,17.30
2017,07,15,07,32,17.30
2017,07,15,07,33,17.40
2017,07,15,07,34,17.40
2017,07,15,07,35,17.40
2017,07,15,07,36,17.50
2017,07,15,07,37,17.50
2017,07,15,07,38,17.60
2017,07,15,07,39,17.60
2017,07,15,07,40,17.70
2017,07,15,07,41,17.70
2017,07,15,07,42,17.80
2017,07,15,07,43,17.80
2017,07,15,07,44,17.90
2017,07,15,07,45,17.90
2017,07,15,07,46,18.00
2017,07,15,07,47,18.00
2017,07,15,07,48,18.00
2017,07,15,07,49,18.00
2017,07,15,07,50,18.10
2017,07,15,07,51,18.10
2017,07,15,07,52,18.10
2017,07,15,07,53,18.10
2017,07,15,07,54,18.10
2017,07,15,07,55,18.20
2017,07,15,07,56,18.30
2017,07,15,07,57,18.30
2017,07,15,07,58,18.40
2017,07,15,07,59,18.40
2017,07,15,08,00,18.50
2017,07,15,08,01,18.50
2017,07,15,08,02,18.60
2017,07,15,08,03,18.60
2017,07,15,08,04,18.70
2017,07,15,08,05,18.70
2017,07,15,08,06,18.70
2017,07,15,08,07,18.80
2017,07,15,08,08,18.80
2017,07,15,08,09,18.90
2017,07,15,08,10,18.90
2017,07,15,08,11,18.90
2017,07,15,08,12,18.90
2017,07,15,08,13,18.90
2017,07,15,08,14,19.00
2017,07,15,08,15,19.10
2017,07,15,08,16,19.10
2017,07,15,08,17,19.20
2017,07,15,08,18,19.30
2017,07,15,08,19,19.30
2017,07,15,08,20,19.40
2017,07,15,08,21,19.40
2017,07,15,08,22,19.40
2017,07,15,08,23,19.50
2017,07,15,08,24,19.50
2017,07,15,08,25,19.60
2017,07,15,08,26,19.70
2017,07,15,08,27,19.70
2017,07,15,08,28,19.60
2017,07,15,08,29,19.60
2017,07,15,08,30,19.50
2017,07,15,08,31,19.50
2017,07,15,08,32,19.50
2017,07,15,08,33,19.50
2017,07,15,08,34,19.40
2017,07,15,08,35,19.40
2017,07,15,08,36,19.30
2017,07,15,08,37,19.30
2017,07,15,08,38,19.30
2017,07,15,08,39,19.40
2017,07,15,08,40,19.40
2017,07,15,08,41,19.50
2017,07,15,08,42,19.50
2017,07,15,08,43,19.60
2017,07,15,08,44,19.50
2017,07,15,08,45,19.60
2017,07,15,08,46,19.60
2017,07,15,08,47,19.70
2017,07,15,08,48,19.70
2017,07,15,08,49,19.70
2017,07,15,08,50,19.70
2017,07,15,08,51,19.70
2017,07,15,08,52,19.70
2017,07,15,08,53,19.70
2017,07,15,08,54,19.80
2017,07,15,08,55,19.80
2017,07,15,08,56,19.80
2017,07,15,08,57,19.90
2017,07,15,08,58,19.90
2017,07,15,08,59,19.90
2017,07,15,09,00,19.90
2017,07,15,09,01,19.90
2017,07,15,09,02,20.00
2017,07,15,09,03,20.00
2017,07,15,09,04,20.10
2017,07,15,09,05,20.10
2017,07,15,09,06,20.10
2017,07,15,09,07,20.10
2017,07,15,09,08,20.10
2017,07,15,09,09,20.00
2017,07,15,09,10,20.00
2017,07,15,09,11,19.90
2017,07,15,09,12,19.90
2017,07,15,09,13,19.90
2017,07,15,09,14,19.90
2017,07,15,09,15,19.90
2017,07,15,09,16,19.90
2017,07,15,09,17,19.80
2017,07,15,09,18,19.80
2017,07,15,09,19,19.80
2017,07,15,09,20,19.80
2017,07,15,09,21,19.80
2017,07,15,09,22,19.80
2017,07,15,09,23,19.90
2017,07,15,09,24,19.90
2017,07,15,09,25,19.80
2017,07,15,09,26,19.80
2017,07,15,09,27,19.90
2017,07,15,09,28,19.90
2017,07,15,09,29,19.80
2017,07,15,09,30,19.80
2017,07,15,09,31,19.70
2017,07,15,09,32,19.70
2017,07,15,09,33,19.60
2017,07,15,09,34,19.60
2017,07,15,09,35,19.50
2017,07,15,09,36,19.40
2017,07,15,09,37,19.30
2017,07,15,09,38,19.30
2017,07,15,09,39,19.30
2017,07,15,09,40,19.30
2017,07,15,09,41,19.40
2017,07,15,09,42,19.50
2017,07,15,09,43,19.60
2017,07,15,09,44,19.70
2017,07,15,09,45,19.90
2017,07,15,09,46,20.00
2017,07,15,09,47,20.20
2017,07,15,09,48,20.30
2017,07,15,09,49,20.50
2017,07,15,09,50,20.70
2017,07,15,09,51,20.80
2017,07,15,09,52,20.90
2017,07,15,09,53,21.00
2017,07,15,09,54,21.10
2017,07,15,09,55,21.20
2017,07,15,09,56,21.30
2017,07,15,09,57,21.30
2017,07,15,09,58,21.30
2017,07,15,09,59,21.30
2017,07,15,10,00,21.30
2017,07,15,10,01,21.20
2017,07,15,10,02,21.30
2017,07,15,10,03,21.30
2017,07,15,10,04,21.20
2017,07,15,10,05,21.10
2017,07,15,10,06,21.00
2017,07,15,10,07,21.00
2017,07,15,10,08,21.00
2017,07,15,10,09,21.00
2017,07,15,10,10,21.10
2017,07,15,10,11,21.10
2017,07,15,10,12,21.10
2017,07,15,10,13,21.10
2017,07,15,10,14,21.10
2017,07,15,10,15,21.10
2017,07,15,10,16,21.20
2017,07,15,10,17,21.20
2017,07,15,10,18,21.20
2017,07,15,10,19,21.20
2017,07,15,10,20,21.30
2017,07,15,10,21,21.30
2017,07,15,10,22,21.30
2017,07,15,10,23,21.30
2017,07,15,10,24,21.30
2017,07,15,10,25,21.20
2017,07,15,10,26,21.10
2017,07,15,10,27,21.00
2017,07,15,10,28,20.90
2017,07,15,10,29,20.80
2017,07,15,10,30,20.80
2017,07,15,10,31,20.80
2017,07,15,10,32,20.80
2017,07,15,10,33,20.80
2017,07,15,10,34,20.80
2017,07,15,10,35,20.80
2017,07,15,10,36,20.80
2017,07,15,10,37,20.80
2017,07,15,10,38,20.80
2017,07,15,10,39,20.80
2017,07,15,10,40,20.80
2017,07,15,10,41,20.80
2017,07,15,10,42,20.90
2017,07,15,10,43,20.90
2017,07,15,10,44,20.90
2017,07,15,10,45,20.90
2017,07,15,10,46,20.90
2017,07,15,10,47,20.80
2017,07,15,10,48,20.80
2017,07,15,10,49,20.80
2017,07,15,10,50,20.80
2017,07,15,10,51,20.80
2017,07,15,10,52,20.80
2017,07,15,10,53,20.80
2017,07,15,10,54,20.90
2017,07,15,10,55,21.00
2017,07,15,10,56,21.00
2017,07,15,10,57,21.10
2017,07,15,10,58,21.10
2017,07,15,10,59,21.10
2017,07,15,11,00,21.10
2017,07,15,11,01,21.10
2017,07,15,11,02,21.10
2017,07,15,11,03,21.10
2017,07,15,11,04,21.10
2017,07,15,11,05,21.10
2017,07,15,11,06,21.20
2017,07,15,11,07,21.20
2017,07,15,11,08,21.20
2017,07,15,11,09,21.20
2017,07,15,11,10,21.20
2017,07,15,11,11,21.20
2017,07,15,11,12,21.10
2017,07,15,11,13,21.10
2017,07,15,11,14,21.00
2017,07,15,11,15,21.00
2017,07,15,11,16,20.90
2017,07,15,11,17,20.90
2017,07,15,11,18,20.90
2017,07,15,11,19,21.00
2017,07,15,11,20,21.00
2017,07,15,11,21,21.00
2017,07,15,11,22,20.90
2017,07,15,11,23,20.80
2017,07,15,11,24,20.80
2017,07,15,11,25,20.80
2017,07,15,11,26,20.80
2017,07,15,11,27,20.90
2017,07,15,11,28,20.80
2017,07,15,11,29,20.90
2017,07,15,11,30,21.00
2017,07,15,11,31,20.90
2017,07,15,11,32,20.90
2017,07,15,11,33,20.90
2017,07,15,11,34,20.90
2017,07,15,11,35,20.90
2017,07,15,11,36,21.00
2017,07,15,11,37,21.20
2017,07,15,11,38,21.20
2017,07,15,11,39,21.20
2017,07,15,11,40,21.20
2017,07,15,11,41,21.10
2017,07,15,11,42,21.00
2017,07,15,11,43,21.00
2017,07,15,11,44,21.00
2017,07,15,11,45,21.00
2017,07,15,11,46,21.00
2017,07,15,11,47,21.10
2017,07,15,11,48,21.20
2017,07,15,11,49,21.20
2017,07,15,11,50,21.20
2017,07,15,11,51,21.10
2017,07,15,11,52,21.10
2017,07,15,11,53,21.20
2017,07,15,11,54,21.30
2017,07,15,11,55,21.50
2017,07,15,11,56,21.60
2017,07,15,11,57,21.70
2017,07,15,11,58,21.80
2017,07,15,11,59,21.80
2017,07,15,12,00,21.90
2017,07,15,12,01,22.10
2017,07,15,12,02,22.20
2017,07,15,12,03,22.30
2017,07,15,12,04,22.30
2017,07,15,12,05,22.30
2017,07,15,12,06,22.30
2017,07,15,12,07,22.30
2017,07,15,12,08,22.30
2017,07,15,12,09,22.20
2017,07,15,12,10,22.10
2017,07,15,12,11,22.00
2017,07,15,12,12,22.00
2017,07,15,12,13,21.80
2017,07,15,12,14,21.70
2017,07,15,12,15,21.70
2017,07,15,12,16,21.60
2017,07,15,12,17,21.50
2017,07,15,12,18,21.40
2017,07,15,12,19,21.40
2017,07,15,12,20,21.40
2017,07,15,12,21,21.40
2017,07,15,12,22,21.30
2017,07,15,12,23,21.30
2017,07,15,12,24,21.20
2017,07,15,12,25,21.10
2017,07,15,12,26,21.00
2017,07,15,12,27,21.00
2017,07,15,12,28,21.10
2017,07,15,12,29,21.10
2017,07,15,12,30,21.20
2017,07,15,12,31,21.20
2017,07,15,12,32,21.20
2017,07,15,12,33,21.20
2017,07,15,12,34,21.20
2017,07,15,12,35,21.20
2017,07,15,12,36,21.20
2017,07,15,12,37,21.20
2017,07,15,12,38,21.20
2017,07,15,12,39,21.20
2017,07,15,12,40,21.10
2017,07,15,12,41,21.10
2017,07,15,12,42,21.00
2017,07,15,12,43,20.90
2017,07,15,12,44,20.90
2017,07,15,12,45,20.90
2017,07,15,12,46,21.00
2017,07,15,12,47,21.00
2017,07,15,12,48,21.10
2017,07,15,12,49,21.10
2017,07,15,12,50,21.20
2017,07,15,12,51,21.30
2017,07,15,12,52,21.30
2017,07,15,12,53,21.30
2017,07,15,12,54,21.40
2017,07,15,12,55,21.40
2017,07,15,12,56,21.40
2017,07,15,12,57,21.50
2017,07,15,12,58,21.50
2017,07,15,12,59,21.60
2017,07,15,13,00,21.70
2017,07,15,13,01,21.80
2017,07,15,13,02,21.90
2017,07,15,13,03,21.90
2017,07,15,13,04,21.90
2017,07,15,13,05,21.90
2017,07,15,13,06,21.90
2017,07,15,13,07,21.90
2017,07,15,13,08,21.90
2017,07,15,13,09,21.80
2017,07,15,13,10,21.80
2017,07,15,13,11,21.70
2017,07,15,13,12,21.60
2017,07,15,13,13,21.60
2017,07,15,13,14,21.50
2017,07,15,13,15,21.40
2017,07,15,13,16,21.40
2017,07,15,13,17,21.40
2017,07,15,13,18,21.40
2017,07,15,13,19,21.50
2017,07,15,13,20,21.50
2017,07,15,13,21,21.50
2017,07,15,13,22,21.60
2017,07,15,13,23,21.70
2017,07,15,13,24,21.80
2017,07,15,13,25,21.90
2017,07,15,13,26,21.90
2017,07,15,13,27,22.00
2017,07,15,13,28,21.90
2017,07,15,13,29,21.80
2017,07,15,13,30,21.70
2017,07,15,13,31,21.60
2017,07,15,13,32,21.60
2017,07,15,13,33,21.50
2017,07,15,13,34,21.50
2017,07,15,13,35,21.50
2017,07,15,13,36,21.50
2017,07,15,13,37,21.60
2017,07,15,13,38,21.60
2017,07,15,13,39,21.60
2017,07,15,13,40,21.50
2017,07,15,13,41,21.50
2017,07,15,13,42,21.50
2017,07,15,13,43,21.40
2017,07,15,13,44,21.50
2017,07,15,13,45,21.50
2017,07,15,13,46,21.60
2017,07,15,13,47,21.60
2017,07,15,13,48,21.60
2017,07,15,13,49,21.60
2017,07,15,13,50,21.50
2017,07,15,13,51,21.40
2017,07,15,13,52,21.30
2017,07,15,13,53,21.20
2017,07,15,13,54,21.10
2017,07,15,13,55,20.90
2017,07,15,13,56,20.80
2017,07,15,13,57,20.70
2017,07,15,13,58,20.60
2017,07,15,13,59,20.50
2017,07,15,14,00,20.50
2017,07,15,14,01,20.50
2017,07,15,14,02,20.60
2017,07,15,14,03,20.70
2017,07,15,14,04,20.80
2017,07,15,14,05,20.90
2017,07,15,14,06,21.00
2017,07,15,14,07,21.10
2017,07,15,14,08,21.10
2017,07,15,14,09,21.10
2017,07,15,14,10,21.20
2017,07,15,14,11,21.30
2017,07,15,14,12,21.30
2017,07,15,14,13,21.30
2017,07,15,14,14,21.40
2017,07,15,14,15,21.50
2017,07,15,14,16,21.60
2017,07,15,14,17,21.60
2017,07,15,14,18,21.60
2017,07,15,14,19,21.70
2017,07,15,14,20,21.70
2017,07,15,14,21,21.70
2017,07,15,14,22,21.70
2017,07,15,14,23,21.60
2017,07,15,14,24,21.60
2017,07,15,14,25,21.50
2017,07,15,14,26,21.40
2017,07,15,14,27,21.30
2017,07,15,14,28,21.30
2017,07,15,14,29,21.30
2017,07,15,14,30,21.30
2017,07,15,14,31,21.30
2017,07,15,14,32,21.30
2017,07,15,14,33,21.30
2017,07,15,14,34,21.40
2017,07,15,14,35,21.50
2017,07,15,14,36,21.50
2017,07,15,14,37,21.60
2017,07,15,14,38,21.70
2017,07,15,14,39,21.70
2017,07,15,14,40,21.70
2017,07,15,14,41,21.70
2017,07,15,14,42,21.70
2017,07,15,14,43,21.60
2017,07,15,14,44,21.60
2017,07,15,14,45,21.60
2017,07,15,14,46,21.60
2017,07,15,14,47,21.60
2017,07,15,14,48,21.50
2017,07,15,14,49,21.40
2017,07,15,14,50,21.40
2017,07,15,14,51,21.40
2017,07,15,14,52,21.40
2017,07,15,14,53,21.50
2017,07,15,14,54,21.60
2017,07,15,14,55,21.70
2017,07,15,14,56,21.70
2017,07,15,14,57,21.80
2017,07,15,14,58,21.90
2017,07,15,14,59,21.90
2017,07,15,15,00,21.90
2017,07,15,15,01,21.80
2017,07,15,15,02,21.70
2017,07,15,15,03,21.60
2017,07,15,15,04,21.60
2017,07,15,15,05,21.50
2017,07,15,15,06,21.40
2017,07,15,15,07,21.40
2017,07,15,15,08,21.30
2017,07,15,15,09,21.20
2017,07,15,15,10,21.20
2017,07,15,15,11,21.20
2017,07,15,15,12,21.20
2017,07,15,15,13,21.20
2017,07,15,15,14,21.30
2017,07,15,15,15,21.30
2017,07,15,15,16,21.40
2017,07,15,15,17,21.50
2017,07,15,15,18,21.60
2017,07,15,15,19,21.70
2017,07,15,15,20,21.80
2017,07,15,15,21,21.80
2017,07,15,15,22,21.80
2017,07,15,15,23,21.80
2017,07,15,15,24,21.80
2017,07,15,15,25,21.80
2017,07,15,15,26,21.80
2017,07,15,15,27,21.80
2017,07,15,15,28,21.80
2017,07,15,15,29,21.80
2017,07,15,15,30,21.80
2017,07,15,15,31,21.80
2017,07,15,15,32,21.80
2017,07,15,15,33,21.80
2017,07,15,15,34,21.90
2017,07,15,15,35,21.90
2017,07,15,15,36,21.90
2017,07,15,15,37,21.90
2017,07,15,15,38,22.00
2017,07,15,15,39,22.00
2017,07,15,15,40,22.10
2017,07,15,15,41,22.10
2017,07,15,15,42,22.20
2017,07,15,15,43,22.20
2017,07,15,15,44,22.20
2017,07,15,15,45,22.30
2017,07,15,15,46,22.30
2017,07,15,15,47,22.30
2017,07,15,15,48,22.30
2017,07,15,15,49,22.30
2017,07,15,15,50,22.30
2017,07,15,15,51,22.20
2017,07,15,15,52,22.20
2017,07,15,15,53,22.20
2017,07,15,15,54,22.20
2017,07,15,15,55,22.20
2017,07,15,15,56,22.20
2017,07,15,15,57,22.20
2017,07,15,15,58,22.30
2017,07,15,15,59,22.40
2017,07,15,16,00,22.50
2017,07,15,16,01,22.60
2017,07,15,16,02,22.70
2017,07,15,16,03,22.80
2017,07,15,16,04,22.90
2017,07,15,16,05,22.90
2017,07,15,16,06,22.90
2017,07,15,16,07,22.90
2017,07,15,16,08,22.90
2017,07,15,16,09,22.90
2017,07,15,16,10,23.00
2017,07,15,16,11,23.00
2017,07,15,16,12,23.00
2017,07,15,16,13,22.90
2017,07,15,16,14,22.80
2017,07,15,16,15,22.70
2017,07,15,16,16,22.70
2017,07,15,16,17,22.70
2017,07,15,16,18,22.60
2017,07,15,16,19,22.60
2017,07,15,16,20,22.60
2017,07,15,16,21,22.70
2017,07,15,16,22,22.70
2017,07,15,16,23,22.80
2017,07,15,16,24,22.80
2017,07,15,16,25,22.80
2017,07,15,16,26,22.70
2017,07,15,16,27,22.50
2017,07,15,16,28,22.40
2017,07,15,16,29,22.40
2017,07,15,16,30,22.40
2017,07,15,16,31,22.30
2017,07,15,16,32,22.30
2017,07,15,16,33,22.30
2017,07,15,16,34,22.30
2017,07,15,16,35,22.40
2017,07,15,16,36,22.40
2017,07,15,16,37,22.40
2017,07,15,16,38,22.40
2017,07,15,16,39,22.30
2017,07,15,16,40,22.30
2017,07,15,16,41,22.20
2017,07,15,16,42,22.10
2017,07,15,16,43,22.10
2017,07,15,16,44,22.10
2017,07,15,16,45,22.10
2017,07,15,16,46,22.20
2017,07,15,16,47,22.20
2017,07,15,16,48,22.20
2017,07,15,16,49,22.30
2017,07,15,16,50,22.20
2017,07,15,16,51,22.10
2017,07,15,16,52,22.10
2017,07,15,16,53,22.10
2017,07,15,16,54,22.10
2017,07,15,16,55,22.10
2017,07,15,16,56,22.10
2017,07,15,16,57,22.10
2017,07,15,16,58,22.10
2017,07,15,16,59,22.00
2017,07,15,17,00,22.00
2017,07,15,17,01,21.90
2017,07,15,17,02,21.90
2017,07,15,17,03,21.90
2017,07,15,17,04,21.90
2017,07,15,17,05,21.80
2017,07,15,17,06,21.80
2017,07,15,17,07,21.70
2017,07,15,17,08,21.70
2017,07,15,17,09,21.70
2017,07,15,17,10,21.60
2017,07,15,17,11,21.60
2017,07,15,17,12,21.60
2017,07,15,17,13,21.60
2017,07,15,17,14,21.60
2017,07,15,17,15,21.70
2017,07,15,17,16,21.70
2017,07,15,17,17,21.80
2017,07,15,17,18,21.80
2017,07,15,17,19,21.90